TAM4707 SBCG-SBCT

Flight info

Callsign TAM4707
Flight time N/A
Altitude 35000
Route POTLA UZ63 GEGOB
Aircraft A321/M-SDE3FGHIRWY/LB1

Departure

Time 2026-04-27 00:39
Airport Campo Grande Airport (SBCG)

Arrival

Time N/A
Airport Curitiba-Afonso Pena International Airport (SBCT)
Time Latitude Longitude Altitude Speed Heading
2026-04-27 00:08 -20.45797 -54.66930 1839 ft 0 kts 349°
2026-04-27 00:32 -20.45804 -54.66929 1839 ft 4 kts 353°
2026-04-27 00:32 -20.45830 -54.66931 1839 ft 4 kts 26°
2026-04-27 00:32 -20.45848 -54.66948 1839 ft 4 kts 70°
2026-04-27 00:32 -20.45852 -54.66962 1839 ft 1 kts 84°
2026-04-27 00:33 -20.45852 -54.66964 1839 ft 0 kts 84°
2026-04-27 00:36 -20.45851 -54.66951 1839 ft 7 kts 85°
2026-04-27 00:36 -20.45845 -54.66890 1839 ft 9 kts 82°
2026-04-27 00:36 -20.45836 -54.66822 1839 ft 7 kts 81°
2026-04-27 00:36 -20.45831 -54.66768 1839 ft 7 kts 94°
2026-04-27 00:37 -20.45856 -54.66722 1839 ft 7 kts 143°
2026-04-27 00:37 -20.45908 -54.66700 1839 ft 8 kts 162°
2026-04-27 00:37 -20.45966 -54.66679 1839 ft 9 kts 160°
2026-04-27 00:37 -20.46029 -54.66652 1839 ft 10 kts 157°
2026-04-27 00:38 -20.46096 -54.66617 1839 ft 11 kts 147°
2026-04-27 00:38 -20.46178 -54.66613 1838 ft 20 kts 211°
2026-04-27 00:38 -20.46469 -54.66880 1838 ft 94 kts 223°
2026-04-27 00:38 -20.47124 -54.67516 1840 ft 158 kts 222°
2026-04-27 00:39 -20.48033 -54.68408 2199 ft 185 kts 224°
2026-04-27 00:39 -20.48971 -54.69350 3002 ft 180 kts 225°
2026-04-27 00:39 -20.49901 -54.70238 3671 ft 189 kts 224°
2026-04-27 00:39 -20.51040 -54.71084 3964 ft 213 kts 202°
2026-04-27 00:40 -20.52580 -54.71092 4091 ft 238 kts 162°
2026-04-27 00:40 -20.53975 -54.69997 4204 ft 265 kts 133°
2026-04-27 00:40 -20.55169 -54.68405 4513 ft 282 kts 126°
2026-04-27 00:40 -20.56286 -54.66669 5023 ft 286 kts 124°
2026-04-27 00:41 -20.57387 -54.64887 5562 ft 289 kts 124°
2026-04-27 00:41 -20.58130 -54.63689 5987 ft 292 kts 124°
2026-04-27 00:41 -20.59269 -54.61880 6603 ft 295 kts 124°
2026-04-27 00:41 -20.60435 -54.60065 7206 ft 298 kts 125°
2026-04-27 00:42 -20.61629 -54.58241 7807 ft 301 kts 126°
2026-04-27 00:42 -20.62842 -54.56407 8418 ft 304 kts 126°
2026-04-27 00:42 -20.64069 -54.54557 9029 ft 307 kts 126°
2026-04-27 00:42 -20.65310 -54.52688 9647 ft 310 kts 125°
2026-04-27 00:43 -20.66564 -54.50801 10164 ft 316 kts 126°
2026-04-27 00:43 -20.67876 -54.48829 10290 ft 336 kts 125°
2026-04-27 00:43 -20.69268 -54.46735 10416 ft 355 kts 125°
2026-04-27 00:43 -20.70737 -54.44526 10516 ft 373 kts 126°
2026-04-27 00:44 -20.72262 -54.42234 10819 ft 383 kts 126°
2026-04-27 00:44 -20.73811 -54.39904 11303 ft 386 kts 126°
2026-04-27 00:44 -20.75374 -54.37552 11833 ft 389 kts 126°
2026-04-27 00:44 -20.76944 -54.35184 12371 ft 392 kts 126°
2026-04-27 00:45 -20.78527 -54.32794 12874 ft 396 kts 126°
2026-04-27 00:45 -20.80123 -54.30384 13381 ft 399 kts 126°
2026-04-27 00:45 -20.81735 -54.27955 13883 ft 402 kts 126°
2026-04-27 00:45 -20.83359 -54.25504 14317 ft 405 kts 126°
2026-04-27 00:46 -20.84991 -54.23032 14782 ft 408 kts 126°
2026-04-27 00:46 -20.86634 -54.20542 15226 ft 411 kts 126°
2026-04-27 00:46 -20.88290 -54.18034 15663 ft 415 kts 126°
2026-04-27 00:46 -20.89967 -54.15496 16102 ft 418 kts 126°
2026-04-27 00:47 -20.91726 -54.13012 16512 ft 420 kts 133°
2026-04-27 00:47 -20.93648 -54.10687 16926 ft 423 kts 133°
2026-04-27 00:47 -20.95604 -54.08324 17348 ft 426 kts 133°
2026-04-27 00:47 -20.97574 -54.05940 17781 ft 429 kts 133°
2026-04-27 00:48 -20.99561 -54.03532 18177 ft 433 kts 133°
2026-04-27 00:48 -21.01557 -54.01116 18538 ft 436 kts 133°
2026-04-27 00:48 -21.03571 -53.98671 18887 ft 439 kts 133°
2026-04-27 00:48 -21.05593 -53.96210 19240 ft 442 kts 133°
2026-04-27 00:49 -21.07632 -53.93729 19573 ft 445 kts 132°
2026-04-27 00:49 -21.09676 -53.91245 19913 ft 447 kts 132°
2026-04-27 00:49 -21.11747 -53.88732 20235 ft 450 kts 132°
2026-04-27 00:49 -21.13826 -53.86202 20550 ft 453 kts 132°
2026-04-27 00:50 -21.15909 -53.83661 20863 ft 456 kts 132°
2026-04-27 00:50 -21.20124 -53.78514 21456 ft 462 kts 132°
2026-04-27 00:50 -21.22252 -53.75920 21743 ft 465 kts 132°
2026-04-27 00:51 -21.24391 -53.73315 22052 ft 467 kts 131°
2026-04-27 00:51 -21.26547 -53.70690 22342 ft 470 kts 131°
2026-04-27 00:51 -21.28710 -53.68057 22631 ft 472 kts 131°
2026-04-27 00:51 -21.30884 -53.65405 22913 ft 474 kts 131°
2026-04-27 00:52 -21.33069 -53.62734 23190 ft 477 kts 131°
2026-04-27 00:52 -21.35258 -53.60057 23460 ft 479 kts 131°
2026-04-27 00:52 -21.37461 -53.57355 23692 ft 482 kts 131°
2026-04-27 00:52 -21.39672 -53.54637 23921 ft 484 kts 131°
2026-04-27 00:53 -21.41892 -53.51912 24147 ft 487 kts 131°
2026-04-27 00:53 -21.44126 -53.49173 24396 ft 488 kts 131°
2026-04-27 00:53 -21.46371 -53.46419 24651 ft 490 kts 131°
2026-04-27 00:53 -21.48616 -53.43657 24907 ft 492 kts 131°
2026-04-27 00:54 -21.50864 -53.40886 25170 ft 493 kts 131°
2026-04-27 00:54 -21.53116 -53.38104 25423 ft 495 kts 131°
2026-04-27 00:54 -21.55379 -53.35308 25674 ft 496 kts 131°
2026-04-27 00:54 -21.57643 -53.32507 25920 ft 498 kts 131°
2026-04-27 00:55 -21.59920 -53.29686 26161 ft 500 kts 131°
2026-04-27 00:55 -21.62179 -53.26885 26392 ft 502 kts 131°
2026-04-27 00:55 -21.64468 -53.24049 26631 ft 503 kts 131°
2026-04-27 00:55 -21.66764 -53.21202 26853 ft 505 kts 131°
2026-04-27 00:56 -21.69073 -53.18341 27100 ft 507 kts 131°
2026-04-27 00:56 -21.71388 -53.15473 27349 ft 508 kts 131°
2026-04-27 00:56 -21.73707 -53.12598 27600 ft 510 kts 132°
2026-04-27 00:56 -21.76036 -53.09708 27850 ft 512 kts 131°
2026-04-27 00:57 -21.78371 -53.06809 28097 ft 513 kts 132°
2026-04-27 00:57 -21.80716 -53.03896 28341 ft 515 kts 132°
2026-04-27 00:57 -21.83058 -53.00990 28671 ft 514 kts 132°
2026-04-27 00:57 -21.85406 -52.98080 29012 ft 514 kts 132°
2026-04-27 00:58 -21.87745 -52.95176 29337 ft 513 kts 132°
2026-04-27 00:58 -21.90081 -52.92272 29705 ft 512 kts 132°
2026-04-27 00:58 -21.92415 -52.89363 30052 ft 511 kts 132°
2026-04-27 00:58 -21.94738 -52.86469 30352 ft 510 kts 132°
2026-04-27 00:59 -21.97056 -52.83577 30653 ft 509 kts 132°
2026-04-27 00:59 -21.99373 -52.80690 30977 ft 507 kts 132°
2026-04-27 00:59 -22.01657 -52.77848 31287 ft 506 kts 132°
2026-04-27 00:59 -22.03961 -52.74979 31595 ft 505 kts 132°
2026-04-27 01:00 -22.06254 -52.72120 31893 ft 504 kts 132°
2026-04-27 01:00 -22.08541 -52.69266 32210 ft 503 kts 132°
2026-04-27 01:00 -22.10818 -52.66417 32526 ft 501 kts 132°
2026-04-27 01:00 -22.13089 -52.63570 32831 ft 500 kts 132°
2026-04-27 01:01 -22.15356 -52.60723 33140 ft 499 kts 132°
2026-04-27 01:01 -22.17614 -52.57889 33442 ft 497 kts 132°
2026-04-27 01:01 -22.19875 -52.55058 33745 ft 497 kts 132°
2026-04-27 01:01 -22.22124 -52.52243 34017 ft 496 kts 132°
2026-04-27 01:02 -22.24378 -52.49415 34283 ft 495 kts 132°
2026-04-27 01:02 -22.26622 -52.46595 34513 ft 494 kts 132°
2026-04-27 01:02 -22.28862 -52.43781 34748 ft 494 kts 132°
2026-04-27 01:02 -22.31100 -52.40971 34912 ft 494 kts 132°
2026-04-27 01:03 -22.33347 -52.38149 34949 ft 494 kts 132°
2026-04-27 01:03 -22.37816 -52.32526 34954 ft 494 kts 132°
2026-04-27 01:04 -22.42303 -52.26868 34947 ft 496 kts 132°
2026-04-27 01:04 -22.46796 -52.21202 34952 ft 499 kts 132°
2026-04-27 01:05 -22.51339 -52.15478 34947 ft 508 kts 132°
2026-04-27 01:05 -22.55949 -52.09653 34945 ft 510 kts 132°
2026-04-27 01:06 -22.60564 -52.03802 34943 ft 512 kts 132°
2026-04-27 01:06 -22.65180 -51.97932 34943 ft 512 kts 132°
2026-04-27 01:07 -22.69815 -51.92056 34952 ft 512 kts 132°
2026-04-27 01:07 -22.74447 -51.86181 34957 ft 513 kts 132°
2026-04-27 01:08 -22.79081 -51.80287 34960 ft 514 kts 133°
2026-04-27 01:08 -22.83728 -51.74366 34966 ft 515 kts 133°
2026-04-27 01:09 -22.88392 -51.68472 34965 ft 515 kts 133°
2026-04-27 01:09 -22.93083 -51.62639 34971 ft 516 kts 133°
2026-04-27 01:10 -22.97801 -51.56768 34969 ft 516 kts 133°
2026-04-27 01:10 -23.02507 -51.50875 34970 ft 516 kts 133°
2026-04-27 01:11 -23.07211 -51.44964 34977 ft 516 kts 133°
2026-04-27 01:11 -23.11908 -51.39057 34974 ft 516 kts 133°
2026-04-27 01:12 -23.16578 -51.33186 34988 ft 517 kts 133°
2026-04-27 01:12 -23.21289 -51.27264 35030 ft 518 kts 133°
2026-04-27 01:13 -23.25996 -51.21335 35050 ft 518 kts 133°
2026-04-27 01:13 -23.30697 -51.15395 35052 ft 518 kts 133°
2026-04-27 01:14 -23.35670 -51.09753 35057 ft 514 kts 144°
2026-04-27 01:14 -23.41265 -51.04904 35049 ft 514 kts 145°
2026-04-27 01:15 -23.46875 -51.00061 35022 ft 514 kts 145°
2026-04-27 01:15 -23.52478 -50.95195 35024 ft 515 kts 145°
2026-04-27 01:16 -23.58062 -50.90321 35007 ft 515 kts 145°
2026-04-27 01:16 -23.63657 -50.85440 35002 ft 515 kts 145°
2026-04-27 01:17 -23.69257 -50.80566 35007 ft 515 kts 145°
2026-04-27 01:17 -23.74853 -50.75682 35003 ft 515 kts 145°
2026-04-27 01:18 -23.80451 -50.70791 35006 ft 515 kts 145°
2026-04-27 01:18 -23.86008 -50.65928 35008 ft 515 kts 145°
2026-04-27 01:19 -23.91593 -50.61033 35016 ft 516 kts 146°
2026-04-27 01:19 -23.97193 -50.56123 35005 ft 516 kts 146°
2026-04-27 01:20 -24.02788 -50.51198 35003 ft 516 kts 145°
2026-04-27 01:20 -24.08384 -50.46262 35004 ft 517 kts 146°
2026-04-27 01:21 -24.13988 -50.41329 35011 ft 517 kts 146°
2026-04-27 01:21 -24.19604 -50.36416 35009 ft 517 kts 146°
2026-04-27 01:22 -24.30247 -50.27486 35030 ft 517 kts 147°
2026-04-27 01:23 -24.35888 -50.22738 34601 ft 504 kts 147°
2026-04-27 01:23 -24.38656 -50.20388 34094 ft 503 kts 147°
2026-04-27 01:23 -24.40486 -50.18832 33648 ft 503 kts 147°
2026-04-27 01:24 -24.46808 -50.13473 32050 ft 508 kts 147°
2026-04-27 01:24 -24.49617 -50.11094 31304 ft 511 kts 147°
2026-04-27 01:24 -24.53368 -50.07913 30255 ft 517 kts 146°
2026-04-27 01:24 -24.55296 -50.06275 29681 ft 519 kts 146°
2026-04-27 01:25 -24.59080 -50.03057 28629 ft 520 kts 146°
2026-04-27 01:25 -24.61931 -50.00628 28075 ft 516 kts 146°
2026-04-27 01:25 -24.63839 -49.99002 27682 ft 512 kts 146°
2026-04-27 01:25 -24.66641 -49.96611 27115 ft 508 kts 146°
2026-04-27 01:26 -24.69410 -49.94244 26817 ft 498 kts 146°
2026-04-27 01:26 -24.72106 -49.91933 26681 ft 484 kts 146°
2026-04-27 01:26 -24.74724 -49.89692 26569 ft 471 kts 146°
2026-04-27 01:26 -24.75560 -49.88978 26526 ft 466 kts 146°